Location: Chervonnoye
(48.6000°N, 34.4000°E)
Time: 14:24:16
(UTC+00:00)

Meteor 2-2 Rocket - Pass Details

Date: 23 November 2020
Orbit: 853 x 928 km, 81.3° (Epoch: 27 January)

Event Time Altitude Azimuth Distance (km) Brightness Sun altitude
Rises 14:44:46 0° 183° (S) 3,555 7.8 -8.3°
Reaches altitude 10° 14:47:15 10° 181° (S) 2,610 7.1 -8.7°
Maximum altitude 14:53:12 73° 98° (E) 955 4.3 -9.6°
Drops below altitude 10° 14:59:04 10° 15° (NNE) 2,583 6.4 -10.5°
Sets 15:01:31 0° 14° (NNE) 3,516 7.1 -10.9°
